Time,TemperatureF,DewpointF,PressureIn,WindDirection,WindDirectionDegrees,WindSpeedMPH,WindSpeedGustMPH,Humidity,HourlyPrecipIn,Conditions,Clouds,dailyrainin,SoftwareType,DateUTC
2013-10-25 00:03:00,26.0,25.0,30.20,WNW,284,0.0,0.0,97,0.00,,,0.00,,2013-10-25 05:03:00,
2013-10-25 09:11:00,23.0,23.0,30.24,WNW,284,0.0,0.0,98,0.00,,,0.00,,2013-10-25 14:11:00,
2013-10-25 09:22:00,26.0,26.0,30.22,WNW,284,0.0,0.0,98,0.00,,,0.00,,2013-10-25 14:22:00,
2013-10-25 09:42:00,29.0,29.0,30.22,SE,132,0.0,1.0,98,0.00,,,0.00,,2013-10-25 14:42:00,
2013-10-25 09:52:00,31.0,31.0,30.22,SW,230,0.0,1.0,98,0.00,,,0.00,,2013-10-25 14:52:00,
2013-10-25 10:11:00,33.0,32.0,30.22,NNW,327,0.0,2.0,97,0.00,,,0.00,,2013-10-25 15:11:00,
2013-10-25 10:21:00,34.0,32.0,30.21,West,260,0.0,2.0,94,0.00,,,0.00,,2013-10-25 15:21:00,
2013-10-25 10:43:00,35.0,33.0,30.21,North,9,0.0,2.0,92,0.00,,,0.00,,2013-10-25 15:43:00,
2013-10-25 10:53:00,36.0,33.0,30.21,SSW,208,0.0,4.0,88,0.00,,,0.00,,2013-10-25 15:53:00,
2013-10-25 11:13:00,37.0,33.0,30.20,ESE,118,0.0,2.0,84,0.00,,,0.00,,2013-10-25 16:13:00,
2013-10-25 11:23:00,38.0,32.0,30.20,East,96,0.0,3.0,80,0.00,,,0.00,,2013-10-25 16:23:00,
2013-10-25 11:43:00,39.0,32.0,30.19,SSW,193,0.0,4.0,75,0.00,,,0.00,,2013-10-25 16:43:00,
2013-10-25 11:53:00,39.0,31.0,30.18,NNW,339,1.0,3.0,74,0.00,,,0.00,,2013-10-25 16:53:00,
2013-10-25 12:13:00,40.0,31.0,30.17,ENE,73,0.0,5.0,70,0.00,,,0.00,,2013-10-25 17:13:00,
2013-10-25 12:22:00,40.0,30.0,30.16,ESE,120,3.0,8.0,66,0.00,,,0.00,,2013-10-25 17:22:00,
2013-10-25 12:43:00,40.0,29.0,30.16,WSW,239,1.0,7.0,65,0.00,,,0.00,,2013-10-25 17:43:00,
2013-10-25 12:52:00,40.0,29.0,30.14,SE,138,0.0,6.0,64,0.01,,,0.01,,2013-10-25 17:52:00,
2013-10-25 13:12:00,41.0,29.0,30.14,WNW,287,0.0,4.0,61,0.01,,,0.01,,2013-10-25 18:12:00,
2013-10-25 13:21:00,41.0,28.0,30.12,NW,324,2.0,6.0,59,0.01,,,0.01,,2013-10-25 18:21:00,
2013-10-25 13:42:00,41.0,27.0,30.12,WNW,283,0.0,2.0,58,0.01,,,0.01,,2013-10-25 18:42:00,
2013-10-25 13:52:00,40.0,27.0,30.11,South,189,1.0,6.0,59,0.00,,,0.01,,2013-10-25 18:52:00,
2013-10-25 14:11:00,40.0,27.0,30.09,West,271,1.0,10.0,60,0.00,,,0.01,,2013-10-25 19:11:00,
2013-10-25 14:22:00,40.0,27.0,30.07,SW,226,1.0,6.0,60,0.00,,,0.01,,2013-10-25 19:22:00,
2013-10-25 14:42:00,41.0,28.0,30.06,South,176,0.0,3.0,59,0.00,,,0.01,,2013-10-25 19:42:00,
2013-10-25 14:52:00,41.0,27.0,30.06,ESE,123,0.0,7.0,56,0.00,,,0.01,,2013-10-25 19:52:00,
2013-10-25 15:12:00,41.0,27.0,30.04,ESE,120,0.0,8.0,57,0.00,,,0.01,,2013-10-25 20:12:00,
2013-10-25 15:22:00,40.0,26.0,30.03,East,84,1.0,10.0,58,0.00,,,0.01,,2013-10-25 20:22:00,
2013-10-25 15:42:00,40.0,26.0,30.01,SE,131,0.0,4.0,58,0.00,,,0.01,,2013-10-25 20:42:00,
2013-10-25 15:52:00,40.0,26.0,30.00,ENE,77,0.0,6.0,57,0.00,,,0.01,,2013-10-25 20:52:00,
2013-10-25 16:11:00,40.0,26.0,29.99,NW,307,0.0,4.0,58,0.00,,,0.01,,2013-10-25 21:11:00,
2013-10-25 16:22:00,40.0,26.0,29.97,SSW,197,0.0,6.0,58,0.00,,,0.01,,2013-10-25 21:22:00,
2013-10-25 16:43:00,40.0,26.0,29.95,SE,136,1.0,5.0,57,0.00,,,0.01,,2013-10-25 21:43:00,
2013-10-25 16:54:00,40.0,26.0,29.93,South,177,1.0,5.0,58,0.00,,,0.01,,2013-10-25 21:54:00,
2013-10-25 17:13:00,40.0,27.0,29.88,ESE,108,4.0,11.0,60,0.00,,,0.01,,2013-10-25 22:13:00,
2013-10-25 17:23:00,40.0,27.0,29.88,WSW,248,2.0,9.0,59,0.00,,,0.01,,2013-10-25 22:23:00,
2013-10-25 17:42:00,40.0,27.0,29.87,SW,226,1.0,7.0,60,0.00,,,0.01,,2013-10-25 22:42:00,
2013-10-25 17:52:00,40.0,27.0,29.86,West,267,0.0,5.0,60,0.00,,,0.01,,2013-10-25 22:52:00,
2013-10-25 18:12:00,40.0,27.0,29.85,NNE,12,1.0,10.0,60,0.00,,,0.01,,2013-10-25 23:12:00,
2013-10-25 18:22:00,40.0,27.0,29.83,ESE,115,0.0,7.0,60,0.00,,,0.01,,2013-10-25 23:22:00,
2013-10-25 18:42:00,40.0,28.0,29.81,East,89,0.0,6.0,61,0.00,,,0.01,,2013-10-25 23:42:00,
2013-10-25 18:52:00,40.0,28.0,29.80,SE,131,1.0,10.0,61,0.00,,,0.01,,2013-10-25 23:52:00,
2013-10-25 19:11:00,40.0,28.0,29.80,SSW,204,1.0,8.0,62,0.00,,,0.01,,2013-10-26 00:11:00,
2013-10-25 19:22:00,40.0,28.0,29.80,SW,236,0.0,6.0,63,0.00,,,0.01,,2013-10-26 00:22:00,
2013-10-25 19:42:00,41.0,29.0,29.78,SSW,200,0.0,6.0,62,0.00,,,0.01,,2013-10-26 00:42:00,
2013-10-25 19:52:00,41.0,29.0,29.78,SW,215,0.0,5.0,63,0.00,,,0.01,,2013-10-26 00:52:00,
2013-10-25 20:12:00,40.0,29.0,29.78,WNW,283,0.0,5.0,64,0.00,,,0.01,,2013-10-26 01:12:00,
2013-10-25 20:22:00,41.0,30.0,29.77,ESE,117,0.0,5.0,65,0.00,,,0.01,,2013-10-26 01:22:00,
2013-10-25 20:42:00,41.0,31.0,29.76,ESE,110,0.0,6.0,67,0.00,,,0.01,,2013-10-26 01:42:00,
2013-10-25 20:52:00,41.0,31.0,29.74,NNE,19,0.0,7.0,67,0.00,,,0.01,,2013-10-26 01:52:00,
2013-10-25 21:12:00,41.0,31.0,29.73,NNW,336,0.0,4.0,68,0.00,,,0.01,,2013-10-26 02:12:00,
2013-10-25 21:22:00,41.0,31.0,29.72,WNW,287,0.0,5.0,67,0.00,,,0.01,,2013-10-26 02:22:00,
2013-10-25 21:43:00,42.0,32.0,29.70,South,179,0.0,2.0,68,0.00,,,0.01,,2013-10-26 02:43:00,
2013-10-25 21:52:00,42.0,32.0,29.69,WSW,238,0.0,1.0,68,0.00,,,0.01,,2013-10-26 02:52:00,
2013-10-25 22:12:00,42.0,32.0,29.68,East,94,1.0,3.0,68,0.00,,,0.01,,2013-10-26 03:12:00,
2013-10-25 22:22:00,43.0,33.0,29.67,SE,146,0.0,3.0,68,0.00,,,0.01,,2013-10-26 03:22:00,
2013-10-25 22:44:00,44.0,35.0,29.65,SE,128,0.0,3.0,70,0.00,,,0.01,,2013-10-26 03:44:00,
2013-10-25 22:54:00,44.0,34.0,29.65,South,177,1.0,6.0,68,0.00,,,0.01,,2013-10-26 03:54:00,
2013-10-25 23:14:00,44.0,37.0,29.64,ENE,73,0.0,3.0,75,0.00,,,0.01,,2013-10-26 04:14:00,
2013-10-25 23:24:00,44.0,36.0,29.63,WSW,257,0.0,5.0,74,0.00,,,0.01,,2013-10-26 04:24:00,
2013-10-25 23:44:00,44.0,36.0,29.62,South,184,1.0,7.0,73,0.00,,,0.01,,2013-10-26 04:44:00,
2013-10-25 23:54:00,45.0,37.0,29.61,South,187,0.0,4.0,72,0.00,,,0.01,,2013-10-26 04:54:00,